Location: Sobotiste
(48.7170°N, 17.4000°E)
Time: 06:31:27
(UTC+02:00)

METEOR M2 - Pass Details

Date: 21 March 2026
Orbit: 817 x 824 km, 98.5° (Epoch: 17 April)

Event Time Altitude Azimuth Distance (km) Brightness Sun altitude
Rises 03:34:51 0° 20° (NNE) 3,373 ? -22.5°
Reaches altitude 10° 03:37:23 10° 29° (NNE) 2,435 ? -22.1°
Maximum altitude 03:42:23 37° 96° (E) 1,253 ? -21.4°
Drops below altitude 10° 03:47:20 10° 164° (SSE) 2,416 ? -20.7°
Sets 03:49:50 0° 172° (S) 3,343 ? -20.3°
